Total_Precipitation_Accumulation
1.96 2.06 2.06 2.05 2.03 1.95 1.98 2.05 2.14 2.08 1.90 1.69 1.63 1.55 1.57 1.59 1.71 1.38 1.38 1.55 1.38 1.27 1.19 1.14 1.14 1.09 1.05 1.03 1.02 1.01 1.05 1.14 1.25 1.34 1.42 1.52 1.67 1.86
1.68 1.82 1.89 1.92 2.01 2.03 2.10 2.13 2.16 2.17 2.08 1.81 1.70 1.63 1.61 1.54 1.80 1.54 1.51 1.56 1.35 1.20 1.08 1.00 0.98 0.94 0.90 0.91 0.93 0.93 0.92 0.94 0.98 1.04 1.13 1.22 1.33 1.48
1.49 1.58 1.67 1.71 1.81 1.85 1.91 1.95 2.05 2.10 2.08 1.90 1.76 1.72 1.68 1.66 1.70 1.57 1.47 1.40 1.29 1.19 1.03 0.94 0.91 0.88 0.87 0.87 0.88 0.88 0.88 0.88 0.91 0.93 0.98 1.06 1.13 1.20
1.29 1.34 1.40 1.46 1.54 1.55 1.64 1.72 1.76 1.83 1.87 1.93 1.96 1.87 1.77 1.74 1.65 1.50 1.31 1.16 1.11 1.11 1.00 0.94 0.93 0.93 0.94 0.95 0.94 0.91 0.86 0.79 0.79 0.85 0.90 0.91 0.92 0.99
1.06 1.11 1.16 1.23 1.24 1.23 1.28 1.33 1.42 1.52 1.72 1.81 1.83 1.85 1.80 1.80 1.81 1.55 1.36 1.34 1.03 0.98 0.93 0.92 0.92 0.90 0.89 0.87 0.85 0.83 0.81 0.72 0.64 0.64 0.72 0.79 0.83 0.83
0.92 0.94 0.95 0.97 0.97 0.99 1.00 1.07 1.19 1.42 1.60 1.67 1.60 1.61 1.67 1.64 1.74 1.65 1.52 1.40 1.21 0.90 0.84 0.78 0.80 0.81 0.79 0.74 0.72 0.71 0.71 0.72 0.69 0.64 0.62 0.62 0.65 0.67
0.82 0.81 0.78 0.80 0.83 0.82 0.79 0.89 1.07 1.30 1.43 1.51 1.52 1.45 1.44 1.47 1.50 1.44 1.44 1.43 1.31 1.06 0.97 0.80 0.74 0.77 0.80 0.79 0.75 0.69 0.64 0.62 0.62 0.60 0.58 0.58 0.59 0.62
0.80 0.73 0.67 0.68 0.68 0.67 0.69 0.77 0.89 1.02 1.14 1.27 1.32 1.32 1.30 1.30 1.38 1.39 1.40 1.44 1.41 1.19 1.13 1.02 0.85 0.93 0.89 0.82 0.76 0.68 0.66 0.65 0.63 0.61 0.62 0.61 0.60 0.60
0.85 0.85 0.72 0.59 0.66 0.69 0.70 0.72 0.77 0.82 0.93 1.09 1.19 1.19 1.20 1.27 1.41 1.42 1.44 1.45 1.41 1.24 1.25 1.24 1.07 1.05 0.84 0.72 0.74 0.67 0.62 0.60 0.60 0.59 0.60 0.60 0.61 0.60
0.80 0.82 0.83 0.80 0.74 0.76 0.74 0.76 0.80 0.85 0.89 0.96 1.11 1.14 1.07 1.13 1.29 1.33 1.33 1.31 1.26 1.20 1.25 1.31 1.09 1.00 0.78 0.81 0.75 0.62 0.56 0.58 0.58 0.52 0.52 0.53 0.57 0.61
0.65 0.65 0.66 0.67 0.65 0.69 0.75 0.83 0.86 0.86 0.76 0.81 0.86 0.94 1.02 1.06 1.09 1.15 1.25 1.39 1.37 1.25 1.22 1.31 1.19 1.03 0.89 0.92 0.81 0.67 0.61 0.64 0.61 0.51 0.46 0.45 0.47 0.54
0.62 0.61 0.59 0.54 0.52 0.50 0.58 0.78 0.92 0.90 0.83 0.82 0.93 1.07 1.14 1.14 1.07 1.14 1.26 1.36 1.37 1.39 1.23 1.25 1.25 1.13 1.06 0.90 0.84 0.82 0.82 0.86 0.77 0.61 0.49 0.47 0.49 0.53
0.61 0.63 0.60 0.50 0.42 0.42 0.51 0.66 0.74 0.71 0.81 1.03 1.24 1.29 1.27 1.20 1.10 1.07 1.18 1.30 1.37 1.40 1.19 1.18 1.24 1.25 1.29 1.11 0.86 0.88 0.97 1.07 1.04 0.86 0.66 0.58 0.55 0.52
0.56 0.56 0.52 0.46 0.39 0.40 0.44 0.52 0.55 0.65 0.89 1.16 1.31 1.29 1.11 0.98 0.94 0.89 0.93 1.07 1.20 1.19 1.11 1.13 1.24 1.28 1.29 1.19 1.02 0.94 1.05 1.18 1.24 1.16 0.95 0.81 0.74 0.66
0.46 0.45 0.45 0.47 0.47 0.53 0.55 0.54 0.61 0.81 1.03 1.16 1.19 1.10 0.98 0.90 0.87 0.86 0.82 0.94 1.00 0.91 0.84 0.91 1.08 1.16 1.26 1.25 1.20 1.22 1.29 1.41 1.39 1.35 1.24 1.03 0.89 0.82
0.45 0.49 0.57 0.64 0.65 0.67 0.71 0.77 0.82 0.89 0.92 1.02 1.02 0.95 0.84 0.81 0.83 0.81 0.82 0.87 0.95 0.93 0.84 0.83 0.93 1.09 1.21 1.21 1.28 1.37 1.41 1.62 1.59 1.45 1.38 1.32 1.15 0.96
0.44 0.57 0.74 0.81 0.81 0.78 0.75 0.76 0.81 0.81 0.84 0.85 0.83 0.81 0.80 0.78 0.77 0.73 0.77 0.78 0.87 0.89 0.89 0.87 0.90 0.96 0.96 1.02 1.16 1.23 1.30 1.46 1.55 1.49 1.44 1.52 1.50 1.27
0.48 0.70 0.82 0.83 0.85 0.76 0.71 0.67 0.67 0.70 0.69 0.69 0.70 0.72 0.74 0.74 0.75 0.70 0.70 0.73 0.80 0.80 0.80 0.83 0.87 0.96 0.95 0.85 1.00 1.15 1.17 1.33 1.42 1.37 1.31 1.46 1.60 1.41
0.49 0.64 0.73 0.78 0.78 0.70 0.65 0.63 0.65 0.64 0.61 0.60 0.63 0.66 0.67 0.68 0.70 0.71 0.71 0.73 0.75 0.75 0.72 0.71 0.76 0.87 0.96 0.99 0.99 1.09 1.13 1.18 1.21 1.19 1.20 1.26 1.44 1.40
0.52 0.57 0.62 0.67 0.68 0.65 0.62 0.61 0.61 0.60 0.58 0.57 0.58 0.61 0.64 0.65 0.62 0.63 0.65 0.64 0.67 0.69 0.70 0.70 0.71 0.78 0.86 0.92 1.05 1.10 1.06 0.95 0.92 0.99 1.03 1.12 1.23 1.21
0.50 0.53 0.53 0.55 0.55 0.56 0.58 0.58 0.56 0.56 0.56 0.55 0.56 0.60 0.63 0.63 0.62 0.56 0.54 0.51 0.57 0.63 0.67 0.69 0.68 0.65 0.68 0.74 0.89 1.00 0.99 1.02 0.94 0.86 0.85 0.91 0.94 0.86
0.44 0.49 0.51 0.50 0.50 0.46 0.45 0.47 0.50 0.50 0.49 0.50 0.55 0.60 0.63 0.62 0.58 0.52 0.52 0.55 0.57 0.60 0.62 0.60 0.59 0.60 0.64 0.74 0.85 0.95 0.94 0.83 0.80 0.83 0.80 0.66 0.57 0.62
0.47 0.48 0.46 0.45 0.42 0.40 0.39 0.41 0.43 0.44 0.46 0.48 0.51 0.56 0.56 0.53 0.50 0.45 0.43 0.44 0.46 0.49 0.54 0.58 0.58 0.58 0.60 0.63 0.67 0.73 0.71 0.62 0.52 0.54 0.66 0.69 0.58 0.56